Time,TemperatureF,DewpointF,PressureIn,WindDirection,WindDirectionDegrees,WindSpeedMPH,WindSpeedGustMPH,Humidity,HourlyPrecipIn,Conditions,Clouds,dailyrainin,SoftwareType,DateUTC
2013-01-21 08:52:00,34.8,32.4,29.40,NNW,338,0.0,0.0,91,0.02,,,0.00,WUHU216HW,2013-01-21 07:52:00,
2013-01-21 08:56:00,35.2,32.8,29.39,NW,315,0.0,0.0,91,0.00,,,0.00,WUHU216HW,2013-01-21 07:56:00,
2013-01-21 09:02:00,35.4,32.9,29.40,NNW,338,0.0,0.0,91,0.00,,,0.00,WUHU216HW,2013-01-21 08:02:00,
2013-01-21 09:07:00,35.4,32.9,29.39,NNW,338,0.0,0.0,91,0.00,,,0.00,WUHU216HW,2013-01-21 08:07:00,
2013-01-21 09:12:00,35.4,32.9,29.39,NNW,338,0.0,0.0,91,0.00,,,0.00,WUHU216HW,2013-01-21 08:12:00,
2013-01-21 09:17:00,35.4,32.9,29.40,NNW,338,0.0,0.0,91,0.00,,,0.00,WUHU216HW,2013-01-21 08:17:00,
2013-01-21 09:22:00,35.4,32.9,29.40,NNW,338,0.0,0.0,91,0.00,,,0.00,WUHU216HW,2013-01-21 08:22:00,
2013-01-21 09:27:00,35.6,33.1,29.41,NNW,338,0.0,0.0,91,0.00,,,0.00,WUHU216HW,2013-01-21 08:27:00,
2013-01-21 09:32:00,35.7,33.3,29.41,NNW,338,0.0,0.0,91,0.00,,,0.00,WUHU216HW,2013-01-21 08:32:00,
2013-01-21 09:37:00,35.7,33.3,29.40,NNW,338,0.0,0.0,91,0.00,,,0.00,WUHU216HW,2013-01-21 08:37:00,
2013-01-21 09:42:00,35.9,33.5,29.41,NNW,338,0.0,0.0,91,0.02,,,0.02,WUHU216HW,2013-01-21 08:42:00,
2013-01-21 09:47:00,35.9,33.5,29.41,North,0,0.0,0.0,91,0.02,,,0.02,WUHU216HW,2013-01-21 08:47:00,
2013-01-21 09:52:00,36.1,33.5,29.41,North,0,0.0,0.0,91,0.02,,,0.02,WUHU216HW,2013-01-21 08:52:00,
2013-01-21 09:58:00,36.1,33.7,29.41,North,0,0.0,0.0,91,0.02,,,0.02,WUHU216HW,2013-01-21 08:58:00,
2013-01-21 10:03:00,36.3,33.8,29.41,North,0,0.0,0.0,91,0.02,,,0.02,WUHU216HW,2013-01-21 09:03:00,
2013-01-21 10:08:00,36.3,33.8,29.41,North,0,0.0,0.0,91,0.02,,,0.02,WUHU216HW,2013-01-21 09:08:00,
2013-01-21 10:13:00,36.3,33.8,29.41,North,0,0.0,0.0,91,0.02,,,0.02,WUHU216HW,2013-01-21 09:13:00,
2013-01-21 10:18:00,36.5,34.2,29.42,NNE,23,0.0,0.0,91,0.02,,,0.02,WUHU216HW,2013-01-21 09:18:00,
2013-01-21 10:23:00,36.6,34.2,29.42,NNW,338,0.0,0.0,91,0.02,,,0.02,WUHU216HW,2013-01-21 09:23:00,
2013-01-21 10:28:00,36.8,34.4,29.43,ESE,113,0.0,0.0,91,0.02,,,0.02,WUHU216HW,2013-01-21 09:28:00,
2013-01-21 10:33:00,36.8,34.4,29.44,East,90,0.0,0.0,91,0.02,,,0.02,WUHU216HW,2013-01-21 09:33:00,
2013-01-21 10:38:00,36.8,34.4,29.44,ESE,113,0.0,0.0,91,0.00,,,0.02,WUHU216HW,2013-01-21 09:38:00,
2013-01-21 10:43:00,36.8,34.4,29.44,ESE,113,0.0,0.0,91,0.00,,,0.02,WUHU216HW,2013-01-21 09:43:00,
2013-01-21 10:48:00,37.0,34.6,29.42,ESE,113,0.0,0.0,91,0.00,,,0.02,WUHU216HW,2013-01-21 09:48:00,
2013-01-21 10:53:00,37.0,34.6,29.42,NE,45,0.0,0.0,91,0.00,,,0.02,WUHU216HW,2013-01-21 09:53:00,
2013-01-21 10:58:00,36.8,34.4,29.41,NNE,23,0.0,0.0,91,0.00,,,0.02,WUHU216HW,2013-01-21 09:58:00,
2013-01-21 11:03:00,36.8,34.4,29.41,North,0,0.0,0.0,91,0.00,,,0.02,WUHU216HW,2013-01-21 10:03:00,
2013-01-21 11:08:00,36.8,34.4,29.42,North,0,0.0,0.0,91,0.00,,,0.02,WUHU216HW,2013-01-21 10:08:00,
2013-01-21 11:13:00,37.0,34.6,29.41,WNW,293,0.0,0.0,91,0.00,,,0.02,WUHU216HW,2013-01-21 10:13:00,
2013-01-21 11:18:00,37.0,34.6,29.40,NW,315,0.0,0.0,91,0.02,,,0.04,WUHU216HW,2013-01-21 10:18:00,
2013-01-21 11:23:00,37.0,34.6,29.40,SSW,203,0.0,0.0,91,0.02,,,0.04,WUHU216HW,2013-01-21 10:23:00,
2013-01-21 11:28:00,37.2,34.7,29.41,South,180,0.0,0.0,91,0.02,,,0.04,WUHU216HW,2013-01-21 10:28:00,
2013-01-21 11:33:00,37.2,34.7,29.41,SSE,158,0.0,0.0,91,0.02,,,0.04,WUHU216HW,2013-01-21 10:33:00,
2013-01-21 11:38:00,37.4,34.9,29.41,South,180,0.0,0.0,91,0.02,,,0.04,WUHU216HW,2013-01-21 10:38:00,
2013-01-21 11:43:00,37.4,34.9,29.40,South,180,0.0,0.0,91,0.02,,,0.04,WUHU216HW,2013-01-21 10:43:00,
2013-01-21 11:48:00,37.4,34.9,29.41,South,180,0.0,0.0,91,0.02,,,0.04,WUHU216HW,2013-01-21 10:48:00,
2013-01-21 11:53:00,37.5,35.1,29.40,North,0,0.0,0.0,91,0.02,,,0.04,WUHU216HW,2013-01-21 10:53:00,
2013-01-21 11:58:00,37.5,35.1,29.40,North,0,0.0,0.0,91,0.02,,,0.04,WUHU216HW,2013-01-21 10:58:00,
2013-01-21 12:03:00,37.7,35.3,29.40,North,0,0.0,0.0,91,0.02,,,0.04,WUHU216HW,2013-01-21 11:03:00,
2013-01-21 12:08:00,37.7,35.3,29.39,North,0,0.0,0.0,91,0.02,,,0.04,WUHU216HW,2013-01-21 11:08:00,
2013-01-21 12:13:00,37.9,35.5,29.39,North,0,0.0,0.0,91,0.00,,,0.04,WUHU216HW,2013-01-21 11:13:00,
2013-01-21 12:18:00,37.9,35.5,29.39,North,0,0.0,0.0,91,0.00,,,0.04,WUHU216HW,2013-01-21 11:18:00,
2013-01-21 12:23:00,37.9,35.5,29.40,NE,45,0.0,0.0,91,0.00,,,0.04,WUHU216HW,2013-01-21 11:23:00,
2013-01-21 12:28:00,38.1,35.6,29.39,NE,45,0.0,0.0,91,0.00,,,0.04,WUHU216HW,2013-01-21 11:28:00,
2013-01-21 12:33:00,38.3,35.8,29.39,NNE,23,0.0,0.0,91,0.00,,,0.04,WUHU216HW,2013-01-21 11:33:00,
2013-01-21 12:38:00,38.4,36.0,29.39,NNE,23,0.0,0.0,91,0.00,,,0.04,WUHU216HW,2013-01-21 11:38:00,
2013-01-21 12:43:00,38.4,36.0,29.39,East,90,0.0,0.0,91,0.00,,,0.04,WUHU216HW,2013-01-21 11:43:00,
2013-01-21 12:48:00,38.6,36.2,29.38,East,90,0.0,0.0,91,0.00,,,0.04,WUHU216HW,2013-01-21 11:48:00,
2013-01-21 12:53:00,38.4,36.0,29.39,ESE,113,0.0,0.0,91,0.00,,,0.04,WUHU216HW,2013-01-21 11:53:00,
2013-01-21 12:58:00,38.3,35.8,29.39,SSE,158,0.0,0.0,91,0.00,,,0.04,WUHU216HW,2013-01-21 11:58:00,
2013-01-21 13:03:00,38.4,36.0,29.38,ESE,113,0.0,0.0,91,0.02,,,0.06,WUHU216HW,2013-01-21 12:03:00,
2013-01-21 13:08:00,38.4,36.0,29.38,ENE,68,0.0,0.0,91,0.02,,,0.06,WUHU216HW,2013-01-21 12:08:00,
2013-01-21 13:13:00,38.3,35.8,29.38,NNE,23,0.0,0.0,91,0.02,,,0.06,WUHU216HW,2013-01-21 12:13:00,
2013-01-21 13:18:00,38.3,35.8,29.38,North,0,0.0,0.0,91,0.02,,,0.06,WUHU216HW,2013-01-21 12:18:00,
2013-01-21 13:23:00,38.3,35.8,29.38,North,0,0.0,0.0,91,0.02,,,0.06,WUHU216HW,2013-01-21 12:23:00,
2013-01-21 13:28:00,38.4,36.0,29.37,North,0,0.0,0.0,91,0.02,,,0.06,WUHU216HW,2013-01-21 12:28:00,
2013-01-21 13:33:00,38.4,36.0,29.37,North,0,0.0,0.0,91,0.02,,,0.06,WUHU216HW,2013-01-21 12:33:00,
2013-01-21 13:38:00,38.4,36.0,29.37,North,0,0.0,0.0,91,0.02,,,0.06,WUHU216HW,2013-01-21 12:38:00,
2013-01-21 13:43:00,38.6,36.2,29.37,North,0,0.0,0.0,91,0.04,,,0.08,WUHU216HW,2013-01-21 12:43:00,
2013-01-21 13:49:00,38.8,36.4,29.37,North,0,0.0,0.0,91,0.04,,,0.08,WUHU216HW,2013-01-21 12:49:00,
2013-01-21 13:54:00,38.8,36.4,29.37,North,0,0.0,0.0,91,0.04,,,0.08,WUHU216HW,2013-01-21 12:54:00,
2013-01-21 13:59:00,38.8,36.4,29.37,North,0,0.0,0.0,91,0.02,,,0.08,WUHU216HW,2013-01-21 12:59:00,
2013-01-21 14:04:00,39.0,36.5,29.37,NNW,338,0.0,0.0,91,0.02,,,0.08,WUHU216HW,2013-01-21 13:04:00,
2013-01-21 14:09:00,38.8,36.5,29.37,NNE,23,0.0,0.0,91,0.02,,,0.08,WUHU216HW,2013-01-21 13:09:00,
2013-01-21 14:14:00,38.8,36.4,29.37,NNW,338,0.0,0.0,91,0.02,,,0.08,WUHU216HW,2013-01-21 13:14:00,
2013-01-21 14:19:00,38.8,36.5,29.37,NNW,338,0.0,0.0,91,0.02,,,0.08,WUHU216HW,2013-01-21 13:19:00,
2013-01-21 14:24:00,38.8,36.4,29.37,NNW,338,0.0,0.0,91,0.02,,,0.08,WUHU216HW,2013-01-21 13:24:00,
2013-01-21 14:29:00,38.8,36.4,29.37,NNW,338,0.0,0.0,91,0.02,,,0.08,WUHU216HW,2013-01-21 13:29:00,
2013-01-21 14:34:00,38.8,36.4,29.38,North,0,0.0,0.0,91,0.02,,,0.08,WUHU216HW,2013-01-21 13:34:00,
2013-01-21 14:39:00,38.8,36.4,29.38,NNE,23,0.0,0.0,91,0.00,,,0.08,WUHU216HW,2013-01-21 13:39:00,
2013-01-21 14:44:00,38.8,36.4,29.39,NNE,23,0.0,0.0,91,0.00,,,0.08,WUHU216HW,2013-01-21 13:44:00,
2013-01-21 14:49:00,38.8,36.4,29.40,NNE,23,0.0,0.0,91,0.00,,,0.08,WUHU216HW,2013-01-21 13:49:00,
2013-01-21 14:54:00,38.8,36.4,29.40,NNE,23,0.0,0.0,91,0.00,,,0.08,WUHU216HW,2013-01-21 13:54:00,
2013-01-21 14:59:00,38.8,36.4,29.40,North,0,0.0,0.0,91,0.00,,,0.08,WUHU216HW,2013-01-21 13:59:00,
2013-01-21 15:04:00,38.6,36.2,29.40,NNW,338,0.0,0.0,91,0.00,,,0.08,WUHU216HW,2013-01-21 14:04:00,
2013-01-21 15:09:00,38.4,36.4,29.41,North,0,0.0,0.0,91,0.00,,,0.08,WUHU216HW,2013-01-21 14:09:00,
2013-01-21 15:14:00,38.6,36.2,29.41,NW,315,0.0,0.0,91,0.00,,,0.08,WUHU216HW,2013-01-21 14:14:00,
2013-01-21 15:19:00,38.4,36.0,29.41,NNW,338,0.0,0.0,91,0.00,,,0.08,WUHU216HW,2013-01-21 14:19:00,
2013-01-21 15:24:00,38.3,35.8,29.42,SW,225,0.0,0.0,91,0.00,,,0.08,WUHU216HW,2013-01-21 14:24:00,
2013-01-21 15:29:00,38.3,35.8,29.41,SW,225,0.0,0.0,91,0.00,,,0.08,WUHU216HW,2013-01-21 14:29:00,
2013-01-21 15:34:00,37.9,35.5,29.42,WSW,248,0.0,0.0,91,0.00,,,0.08,WUHU216HW,2013-01-21 14:34:00,
2013-01-21 15:39:00,38.1,35.6,29.42,West,270,0.0,0.0,91,0.00,,,0.08,WUHU216HW,2013-01-21 14:39:00,
2013-01-21 15:44:00,38.1,35.6,29.42,WNW,293,0.0,0.0,91,0.00,,,0.08,WUHU216HW,2013-01-21 14:44:00,
2013-01-21 15:49:00,37.9,35.5,29.42,WNW,293,0.0,0.0,91,0.00,,,0.08,WUHU216HW,2013-01-21 14:49:00,
2013-01-21 15:54:00,37.9,35.5,29.42,WNW,293,0.0,0.0,91,0.00,,,0.08,WUHU216HW,2013-01-21 14:54:00,
2013-01-21 15:59:00,37.9,35.5,29.42,West,270,0.0,0.0,91,0.00,,,0.08,WUHU216HW,2013-01-21 14:59:00,
2013-01-21 16:04:00,38.1,35.6,29.43,WNW,293,0.0,0.0,91,0.00,,,0.08,WUHU216HW,2013-01-21 15:04:00,
2013-01-21 16:09:00,38.1,35.5,29.43,WNW,293,0.0,0.0,91,0.00,,,0.08,WUHU216HW,2013-01-21 15:09:00,
2013-01-21 16:14:00,37.9,35.5,29.43,WNW,293,0.0,0.0,91,0.00,,,0.08,WUHU216HW,2013-01-21 15:14:00,
2013-01-21 16:19:00,37.7,35.3,29.43,West,270,0.0,0.0,91,0.00,,,0.08,WUHU216HW,2013-01-21 15:19:00,
2013-01-21 16:24:00,37.5,35.1,29.43,West,270,0.0,0.0,91,0.00,,,0.08,WUHU216HW,2013-01-21 15:24:00,
2013-01-21 16:29:00,37.2,34.7,29.42,NW,315,0.0,0.0,91,0.00,,,0.08,WUHU216HW,2013-01-21 15:29:00,
2013-01-21 16:34:00,37.2,34.7,29.43,NW,315,0.0,0.0,91,0.00,,,0.08,WUHU216HW,2013-01-21 15:34:00,
2013-01-21 16:39:00,37.2,34.7,29.42,NW,315,0.0,0.0,91,0.00,,,0.08,WUHU216HW,2013-01-21 15:39:00,
2013-01-21 16:44:00,37.2,34.7,29.42,East,90,0.0,0.0,91,0.00,,,0.08,WUHU216HW,2013-01-21 15:44:00,
2013-01-21 16:49:00,37.0,34.6,29.43,NNW,338,0.0,0.0,91,0.00,,,0.08,WUHU216HW,2013-01-21 15:49:00,
2013-01-21 16:54:00,37.2,34.7,29.43,WNW,293,0.0,0.0,91,0.00,,,0.08,WUHU216HW,2013-01-21 15:54:00,
2013-01-21 16:59:00,37.2,34.7,29.43,NW,315,0.0,0.0,91,0.00,,,0.08,WUHU216HW,2013-01-21 15:59:00,
2013-01-21 17:04:00,37.2,34.7,29.43,NW,315,0.0,0.0,91,0.00,,,0.08,WUHU216HW,2013-01-21 16:04:00,
2013-01-21 17:09:00,37.0,34.6,29.43,NW,315,0.0,0.0,91,0.00,,,0.08,WUHU216HW,2013-01-21 16:09:00,
2013-01-21 17:14:00,37.2,34.7,29.44,NW,315,0.0,0.0,91,0.00,,,0.08,WUHU216HW,2013-01-21 16:14:00,
2013-01-21 17:19:00,37.0,34.6,29.43,NW,315,0.0,0.0,91,0.00,,,0.08,WUHU216HW,2013-01-21 16:19:00,
2013-01-21 17:24:00,37.0,34.6,29.43,NW,315,0.0,0.0,91,0.00,,,0.08,WUHU216HW,2013-01-21 16:24:00,
2013-01-21 17:29:00,36.8,34.4,29.43,NW,315,0.0,0.0,91,0.00,,,0.08,WUHU216HW,2013-01-21 16:29:00,
2013-01-21 17:34:00,36.8,34.4,29.42,NW,315,0.0,0.0,91,0.00,,,0.08,WUHU216HW,2013-01-21 16:34:00,
2013-01-21 17:39:00,37.0,34.6,29.41,NW,315,0.0,0.0,91,0.00,,,0.08,WUHU216HW,2013-01-21 16:39:00,
2013-01-21 17:44:00,37.0,34.6,29.40,NW,315,0.0,0.0,91,0.00,,,0.08,WUHU216HW,2013-01-21 16:44:00,
2013-01-21 17:49:00,37.2,34.7,29.40,NW,315,0.0,0.0,91,0.00,,,0.08,WUHU216HW,2013-01-21 16:49:00,
2013-01-21 17:54:00,37.2,34.7,29.39,NW,315,0.0,0.0,91,0.00,,,0.08,WUHU216HW,2013-01-21 16:54:00,
2013-01-21 17:59:00,37.2,34.7,29.39,NW,315,0.0,0.0,91,0.00,,,0.08,WUHU216HW,2013-01-21 16:59:00,
2013-01-21 18:04:00,37.2,34.7,29.39,NW,315,0.0,0.0,91,0.00,,,0.08,WUHU216HW,2013-01-21 17:04:00,
2013-01-21 18:09:00,37.2,34.7,29.38,NW,315,0.0,0.0,91,0.00,,,0.08,WUHU216HW,2013-01-21 17:09:00,
2013-01-21 18:14:00,37.0,34.6,29.38,NNW,338,0.0,0.0,91,0.00,,,0.08,WUHU216HW,2013-01-21 17:14:00,
2013-01-21 18:19:00,37.2,34.7,29.38,NNW,338,0.0,0.0,91,0.00,,,0.08,WUHU216HW,2013-01-21 17:19:00,
2013-01-21 18:25:00,37.4,34.9,29.38,NNW,338,0.0,0.0,91,0.00,,,0.08,WUHU216HW,2013-01-21 17:25:00,
2013-01-21 18:30:00,37.4,34.9,29.37,NNW,338,0.0,0.0,91,0.00,,,0.08,WUHU216HW,2013-01-21 17:30:00,
2013-01-21 18:35:00,37.0,34.6,29.37,North,0,0.0,0.0,91,0.00,,,0.08,WUHU216HW,2013-01-21 17:35:00,
2013-01-21 18:40:00,37.0,34.6,29.38,North,0,0.0,0.0,91,0.00,,,0.08,WUHU216HW,2013-01-21 17:40:00,
2013-01-21 18:45:00,37.0,34.6,29.37,NNW,338,0.0,0.0,91,0.00,,,0.08,WUHU216HW,2013-01-21 17:45:00,
2013-01-21 18:50:00,37.0,34.6,29.37,NNW,338,0.0,0.0,91,0.00,,,0.08,WUHU216HW,2013-01-21 17:50:00,
2013-01-21 18:55:00,37.2,34.7,29.37,West,270,0.0,0.0,91,0.00,,,0.08,WUHU216HW,2013-01-21 17:55:00,
2013-01-21 19:00:00,37.5,35.1,29.37,South,180,0.0,0.0,91,0.00,,,0.08,WUHU216HW,2013-01-21 18:00:00,
2013-01-21 19:05:00,37.5,35.1,29.37,WSW,248,0.0,0.0,91,0.00,,,0.08,WUHU216HW,2013-01-21 18:05:00,
2013-01-21 19:10:00,38.1,35.6,29.37,WSW,248,0.0,0.0,91,0.00,,,0.08,WUHU216HW,2013-01-21 18:10:00,
2013-01-21 19:15:00,37.9,35.5,29.37,South,180,0.0,0.0,91,0.00,,,0.08,WUHU216HW,2013-01-21 18:15:00,
2013-01-21 19:20:00,37.7,35.3,29.37,SW,225,0.0,0.0,91,0.00,,,0.08,WUHU216HW,2013-01-21 18:20:00,
2013-01-21 19:25:00,37.4,34.9,29.37,SW,225,0.0,0.0,91,0.00,,,0.08,WUHU216HW,2013-01-21 18:25:00,
2013-01-21 19:30:00,37.4,34.9,29.37,West,270,0.0,0.0,91,0.00,,,0.08,WUHU216HW,2013-01-21 18:30:00,
2013-01-21 19:35:00,37.2,34.7,29.37,WSW,248,0.0,0.0,91,0.00,,,0.08,WUHU216HW,2013-01-21 18:35:00,
2013-01-21 19:40:00,37.2,34.7,29.38,WSW,248,0.0,0.0,91,0.00,,,0.08,WUHU216HW,2013-01-21 18:40:00,
2013-01-21 19:45:00,37.0,34.6,29.38,WNW,293,0.0,0.0,91,0.00,,,0.08,WUHU216HW,2013-01-21 18:45:00,
2013-01-21 19:50:00,37.2,34.7,29.38,NW,315,0.0,0.0,91,0.00,,,0.08,WUHU216HW,2013-01-21 18:50:00,
2013-01-21 19:55:00,37.2,34.7,29.38,WNW,293,0.0,0.0,91,0.00,,,0.08,WUHU216HW,2013-01-21 18:55:00,
2013-01-21 20:00:00,37.2,34.7,29.40,WNW,293,0.0,0.0,91,0.00,,,0.08,WUHU216HW,2013-01-21 19:00:00,
2013-01-21 20:05:00,37.2,34.7,29.40,WNW,293,0.0,0.0,91,0.00,,,0.08,WUHU216HW,2013-01-21 19:05:00,
2013-01-21 20:10:00,37.2,34.7,29.41,WNW,293,0.0,0.0,91,0.00,,,0.08,WUHU216HW,2013-01-21 19:10:00,
2013-01-21 20:15:00,37.9,35.3,29.41,West,270,0.8,1.3,91,0.00,,,0.08,WUHU216HW,2013-01-21 19:15:00,
2013-01-21 20:20:00,38.4,36.0,29.42,West,270,5.3,5.3,91,0.00,,,0.08,WUHU216HW,2013-01-21 19:20:00,
2013-01-21 20:25:00,38.8,36.4,29.42,West,270,5.3,5.3,91,0.02,,,0.10,WUHU216HW,2013-01-21 19:25:00,
2013-01-21 20:30:00,38.8,36.6,29.43,West,270,0.0,5.3,92,0.02,,,0.10,WUHU216HW,2013-01-21 19:30:00,
2013-01-21 20:35:00,38.4,36.0,29.42,West,270,0.8,1.3,91,0.02,,,0.10,WUHU216HW,2013-01-21 19:35:00,
2013-01-21 20:40:00,38.6,36.2,29.43,West,270,1.1,1.1,91,0.02,,,0.10,WUHU216HW,2013-01-21 19:40:00,
2013-01-21 20:45:00,38.6,36.2,29.43,WNW,293,2.0,2.2,91,0.02,,,0.10,WUHU216HW,2013-01-21 19:45:00,
2013-01-21 20:50:00,38.8,36.6,29.43,West,270,1.3,3.1,92,0.02,,,0.10,WUHU216HW,2013-01-21 19:50:00,
2013-01-21 20:55:00,38.8,36.6,29.44,West,270,2.9,3.1,92,0.02,,,0.10,WUHU216HW,2013-01-21 19:55:00,
2013-01-21 21:00:00,38.8,36.4,29.44,NNW,338,0.0,2.9,91,0.02,,,0.10,WUHU216HW,2013-01-21 20:00:00,
2013-01-21 21:05:00,38.4,36.0,29.43,NW,315,0.0,2.4,91,0.04,,,0.10,WUHU216HW,2013-01-21 20:05:00,
2013-01-21 21:10:00,38.6,36.2,29.44,WSW,248,0.0,1.5,91,0.04,,,0.12,WUHU216HW,2013-01-21 20:10:00,
2013-01-21 21:15:00,38.4,36.0,29.44,WSW,248,4.4,4.4,91,0.04,,,0.12,WUHU216HW,2013-01-21 20:15:00,
2013-01-21 21:20:00,38.1,35.6,29.45,West,270,0.0,5.1,91,0.04,,,0.12,WUHU216HW,2013-01-21 20:20:00,
2013-01-21 21:25:00,37.9,35.5,29.45,NNW,338,0.0,5.1,91,0.02,,,0.12,WUHU216HW,2013-01-21 20:25:00,
2013-01-21 21:30:00,38.1,35.6,29.45,NNW,338,0.0,1.3,91,0.02,,,0.12,WUHU216HW,2013-01-21 20:30:00,
2013-01-21 21:35:00,37.5,35.1,29.46,North,0,2.2,2.2,91,0.02,,,0.12,WUHU216HW,2013-01-21 20:35:00,
2013-01-21 21:40:00,37.4,34.9,29.45,NW,315,0.0,4.0,91,0.02,,,0.12,WUHU216HW,2013-01-21 20:40:00,
2013-01-21 21:45:00,37.2,34.7,29.46,NNW,338,2.6,4.0,91,0.02,,,0.12,WUHU216HW,2013-01-21 20:45:00,
2013-01-21 21:50:00,37.0,34.6,29.45,North,0,0.0,3.1,91,0.02,,,0.12,WUHU216HW,2013-01-21 20:50:00,
2013-01-21 21:55:00,37.2,34.7,29.44,WNW,293,4.4,4.4,91,0.02,,,0.12,WUHU216HW,2013-01-21 20:55:00,
2013-01-21 22:00:00,37.5,34.9,29.44,NNW,338,4.4,7.1,91,0.02,,,0.12,WUHU216HW,2013-01-21 21:00:00,
2013-01-21 22:05:00,37.9,35.5,29.43,NW,315,5.3,8.9,91,0.00,,,0.12,WUHU216HW,2013-01-21 21:05:00,
2013-01-21 22:10:00,38.3,35.8,29.44,NW,315,0.0,9.8,91,0.00,,,0.12,WUHU216HW,2013-01-21 21:10:00,
2013-01-21 22:15:00,38.6,36.2,29.44,WNW,293,8.7,9.8,91,0.00,,,0.12,WUHU216HW,2013-01-21 21:15:00,
2013-01-21 22:20:00,38.8,36.4,29.44,North,0,0.0,8.7,91,0.00,,,0.12,WUHU216HW,2013-01-21 21:20:00,
2013-01-21 22:25:00,38.4,36.0,29.44,North,0,0.0,4.0,91,0.00,,,0.12,WUHU216HW,2013-01-21 21:25:00,
2013-01-21 22:31:00,38.3,35.6,29.45,NW,315,0.0,1.5,91,0.00,,,0.12,WUHU216HW,2013-01-21 21:31:00,
2013-01-21 22:36:00,38.1,35.6,29.45,NNW,338,2.2,2.2,91,0.00,,,0.12,WUHU216HW,2013-01-21 21:36:00,
2013-01-21 22:41:00,38.1,35.6,29.45,NNE,23,0.0,2.2,91,0.00,,,0.12,WUHU216HW,2013-01-21 21:41:00,
2013-01-21 22:46:00,37.9,35.5,29.45,West,270,0.0,0.0,91,0.00,,,0.12,WUHU216HW,2013-01-21 21:46:00,
2013-01-21 22:51:00,37.9,35.3,29.45,West,270,3.3,4.6,91,0.00,,,0.12,WUHU216HW,2013-01-21 21:51:00,
2013-01-21 22:56:00,37.7,35.3,29.45,West,270,0.0,6.0,91,0.00,,,0.12,WUHU216HW,2013-01-21 21:56:00,
2013-01-21 23:01:00,37.7,35.3,29.45,SE,135,0.0,6.0,91,0.00,,,0.12,WUHU216HW,2013-01-21 22:01:00,
2013-01-21 23:06:00,37.5,35.1,29.45,NE,45,0.0,3.8,91,0.00,,,0.12,WUHU216HW,2013-01-21 22:06:00,
2013-01-21 23:11:00,37.4,34.9,29.45,West,270,2.0,4.6,91,0.00,,,0.12,WUHU216HW,2013-01-21 22:11:00,
2013-01-21 23:16:00,37.2,34.7,29.45,WNW,293,6.4,6.4,91,0.00,,,0.12,WUHU216HW,2013-01-21 22:16:00,